This is the latest recevied weather packets stored in our database for station/object KB1MS. If no packets are shown the sender has not sent any weather packets the latest 10 day(s).
| Time | Temp. | Humidity | Pressure | Rain* | Wind** | Luminosity | Snow |
|---|---|---|---|---|---|---|---|
| 1787864693 | 26.11° C | 60% | 1015.7 hPa | 0 mm | - | 162 W/m² | - |
| 1787864392 | 26.67° C | 60% | 1015.9 hPa | 0 mm | - | 163 W/m² | - |
| 1787864092 | 27.22° C | 58% | 1015.9 hPa | 0 mm | - | 221 W/m² | - |
| 1787863791 | 26.67° C | 59% | 1015.7 hPa | 0 mm | - | 236 W/m² | - |
| 1787863490 | 26.67° C | 57% | 1015.8 hPa | 0 mm | - | 223 W/m² | - |
| 1787863192 | 26.11° C | 58% | 1016 hPa | 0 mm | - | 206 W/m² | - |
| 1787862881 | 26.67° C | 58% | 1016 hPa | 0 mm | - | 187 W/m² | - |
| 1787862580 | 26.67° C | 58% | 1015.7 hPa | 0 mm | - | 213 W/m² | - |
| 1787862276 | 26.67° C | 58% | 1016.1 hPa | 0 mm | - | 192 W/m² | - |
| 1787861976 | 26.67° C | 58% | 1016.1 hPa | 0 mm | - | 212 W/m² | - |
| 1787861671 | 26.67° C | 58% | 1016.2 hPa | 0 mm | - | 163 W/m² | - |
| 1787861369 | 27.22° C | 59% | 1016.5 hPa | 0 mm | - | 151 W/m² | - |
| 1787861064 | 27.78° C | 59% | 1016.2 hPa | 0 mm | - | 159 W/m² | - |
| 1787860763 | 28.33° C | 57% | 1016.2 hPa | 0 mm | - | 133 W/m² | - |
| 1787860459 | 29.44° C | 55% | 1016.1 hPa | 0 mm | - | 181 W/m² | - |
| 1787860158 | 29.44° C | 56% | 1016.2 hPa | 0 mm | - | 559 W/m² | - |
| 1787859854 | 28.33° C | 56% | 1016.2 hPa | 0 mm | - | 388 W/m² | - |
| 1787859549 | 28.33° C | 56% | 1016.1 hPa | 0 mm | - | 418 W/m² | - |
| 1787859243 | 28.33° C | 58% | 1016.3 hPa | 0 mm | - | 318 W/m² | - |
| 1787858940 | 28.33° C | 57% | 1016.2 hPa | 0 mm | - | 293 W/m² | - |
| 1787858635 | 28.33° C | 56% | 1015.9 hPa | 0 mm | - | 242 W/m² | - |
| 1787858330 | 28.89° C | 56% | 1016.2 hPa | 0 mm | - | 307 W/m² | - |
| 1787858025 | 28.33° C | 58% | 1016.2 hPa | 0 mm | - | 533 W/m² | - |
| 1787857720 | 28.33° C | 56% | 1016 hPa | 0 mm | - | 309 W/m² | - |
| 1787857417 | 28.89° C | 56% | 1016.2 hPa | 0 mm | - | 481 W/m² | - |
* Rain latest hour (hover to see other rain measurements)
** Current wind speed in m/s (hover to see current wind gust speed)